TimeAKDT,TemperatureF,Dew PointF,Humidity,Sea Level PressureIn,VisibilityMPH,Wind Direction,Wind SpeedMPH,Gust SpeedMPH,PrecipitationIn,Events,Conditions,WindDirDegrees,DateUTC
12:53 AM,45.0,37.9,76,29.50,10.0,West,4.6,-,0.00,,Overcast,280,2013-05-13 08:53:00
1:53 AM,44.1,37.0,76,29.49,10.0,SW,4.6,-,N/A,,Overcast,220,2013-05-13 09:53:00
2:53 AM,42.1,37.0,82,29.49,10.0,West,5.8,-,N/A,,Mostly Cloudy,270,2013-05-13 10:53:00
3:53 AM,43.0,37.0,80,29.47,10.0,Calm,Calm,-,N/A,,Overcast,0,2013-05-13 11:53:00
4:53 AM,43.0,36.0,76,29.46,10.0,Calm,Calm,-,N/A,,Overcast,0,2013-05-13 12:53:00
5:53 AM,46.0,32.0,58,29.45,10.0,WSW,6.9,-,N/A,,Partly Cloudy,250,2013-05-13 13:53:00
6:53 AM,45.0,33.1,63,29.45,10.0,WNW,6.9,-,N/A,,Mostly Cloudy,300,2013-05-13 14:53:00
7:53 AM,46.9,34.0,61,29.45,10.0,NW,6.9,-,N/A,,Mostly Cloudy,320,2013-05-13 15:53:00
8:53 AM,48.0,36.0,63,29.45,10.0,East,3.5,-,N/A,,Partly Cloudy,80,2013-05-13 16:53:00
9:53 AM,52.0,35.1,53,29.44,10.0,Variable,6.9,-,N/A,,Clear,0,2013-05-13 17:53:00
10:53 AM,53.1,28.9,40,29.45,10.0,WSW,10.4,-,N/A,,Partly Cloudy,250,2013-05-13 18:53:00
12:53 PM,54.0,28.9,38,29.46,10.0,West,10.4,-,N/A,,Scattered Clouds,270,2013-05-13 20:53:00
1:53 PM,53.1,28.9,40,29.46,10.0,Variable,4.6,16.1,N/A,,Scattered Clouds,0,2013-05-13 21:53:00
2:53 PM,54.0,28.9,38,29.45,10.0,West,12.7,17.3,N/A,,Clear,280,2013-05-13 22:53:00
3:53 PM,55.4,28.4,36,29.45,10.0,NW,10.4,17.3,N/A,,Scattered Clouds,310,2013-05-13 23:53:00
4:53 PM,53.1,35.1,50,29.46,10.0,East,13.8,-,N/A,,Scattered Clouds,100,2013-05-14 00:53:00
5:53 PM,46.9,39.9,77,29.47,10.0,East,11.5,-,N/A,,Scattered Clouds,100,2013-05-14 01:53:00
6:53 PM,45.0,39.0,80,29.48,10.0,ENE,5.8,-,N/A,,Mostly Cloudy,60,2013-05-14 02:53:00
7:53 PM,44.1,37.9,79,29.48,10.0,East,6.9,-,N/A,,Scattered Clouds,90,2013-05-14 03:53:00
8:53 PM,43.0,36.0,76,29.49,10.0,Calm,Calm,-,N/A,,Scattered Clouds,0,2013-05-14 04:53:00
9:53 PM,43.0,35.1,74,29.50,10.0,Calm,Calm,-,N/A,,Scattered Clouds,0,2013-05-14 05:53:00
10:53 PM,39.9,34.0,79,29.52,10.0,West,4.6,-,N/A,,Scattered Clouds,280,2013-05-14 06:53:00
11:53 PM,37.0,32.0,82,29.53,10.0,West,6.9,-,N/A,,Scattered Clouds,260,2013-05-14 07:53:00